This is the latest recevied weather packets stored in our database for station/object N3WXO-1. If no packets are shown the sender has not sent any weather packets the latest 10 day(s).
| Time | Temp. | Humidity | Pressure | Rain* | Wind** | Luminosity | Snow |
|---|---|---|---|---|---|---|---|
| 1777993221 | 22.78° C | 63% | 1010.3 hPa | 0 mm | - | 735 W/m² | - |
| 1777992928 | 22.78° C | 61% | 1010.3 hPa | 0 mm | - | 728 W/m² | - |
| 1777992619 | 22.22° C | 60% | 1010.3 hPa | 0 mm | - | 715 W/m² | - |
| 1777992322 | 21.67° C | 63% | 1010.4 hPa | 0 mm | - | 710 W/m² | - |
| 1777992027 | 21.67° C | 63% | 1010.4 hPa | 0 mm | - | 700 W/m² | - |
| 1777991735 | 21.67° C | 65% | 1010.5 hPa | 0 mm | - | 686 W/m² | - |
| 1777991427 | 21.11° C | 68% | 1010.6 hPa | 0 mm | - | 677 W/m² | - |
| 1777991133 | 21.11° C | 67% | 1010.7 hPa | 0 mm | - | 668 W/m² | - |
| 1777990829 | 20.56° C | 70% | 1010.9 hPa | 0 mm | - | 650 W/m² | - |
| 1777990513 | 20.56° C | 67% | 1010.9 hPa | 0 mm | - | 642 W/m² | - |
| 1777989928 | 20° C | 75% | 1010.8 hPa | 0 mm | - | 619 W/m² | - |
| 1777989623 | 19.44° C | 76% | 1011 hPa | 0 mm | - | 610 W/m² | - |
| 1777989330 | 18.89° C | 77% | 1011 hPa | 0 mm | - | 594 W/m² | - |
| 1777989016 | 18.89° C | 81% | 1011.1 hPa | 0 mm | - | 582 W/m² | - |
| 1777988723 | 18.33° C | 83% | 1011.1 hPa | 0 mm | - | 571 W/m² | - |
| 1777988413 | 17.78° C | 83% | 1011.2 hPa | 0 mm | - | 557 W/m² | - |
| 1777988121 | 17.22° C | 81% | 1011.4 hPa | 0 mm | - | 541 W/m² | - |
| 1777987829 | 16.67° C | 81% | 1011.5 hPa | 0 mm | - | 533 W/m² | - |
| 1777987514 | 16.11° C | 85% | 1011.6 hPa | 0 mm | - | 524 W/m² | - |
| 1777987220 | 16.11° C | 88% | 1011.5 hPa | 0 mm | - | 508 W/m² | - |
| 1777986913 | 15.56° C | 90% | 1011.5 hPa | 0 mm | - | 499 W/m² | - |
| 1777986624 | 15° C | 91% | 1011.4 hPa | 0 mm | - | 483 W/m² | - |
| 1777986331 | 14.44° C | 95% | 1011.4 hPa | 0 mm | - | 279 W/m² | - |
| 1777986017 | 14.44° C | 96% | 1011.4 hPa | 0 mm | - | 538 W/m² | - |
| 1777985730 | 13.89° C | 97% | 1011.4 hPa | 0 mm | - | 448 W/m² | - |
* Rain latest hour (hover to see other rain measurements)
** Current wind speed in m/s (hover to see current wind gust speed)